Flag for Italy Weather past 2 weeks in Bologna, Italy

Now
64 °F

Clear.


Feels Like: 64 °F
Forecast: 54 / 70 °F
Wind: 8 mph from Southwest

Location: Bologna / Borgo Panigale

Current Time: Sep 22, 2014 at 3:07:49 AM

Latest Report: Sep 22, 2014 at 2:20 AM


Visibility: 10 mi

Pressure: 29.83 "Hg

Humidity: 83%

Dew point: 59 °F

Location of BolognaLocation

Historic Weather in Bologna — Graph

°F

Bologna temperature yesterday

Maximum temperature yesterday: 79 °F (at 2:20 PM)
Minimum temperature yesterday: 63 °F (at 1:20 AM)
Average temperature yesterday: 70 °F

Past Weeks' High & Low Weather Summary

 TemperatureHumidityPressure
High86 °F (Sep 8, 4:20 PM)100% (Sep 10, 4:50 AM)30.12 "Hg (Sep 10, 4:50 AM)
Low55 °F (Sep 13, 5:50 AM)40% (Sep 8, 4:20 PM)29.80 "Hg (Sep 11, 8:20 AM)
Average68 °F78%29.97 "Hg
* Reported Sep 7 1:20 AM — Sep 22 1:50 AM, Bologna, Weather by CustomWeather, © 2014

Note: Actual official high and low records may vary slightly from our data, if they occured in-between our weather recording intervals... More about our weather records

Advertising

Bologna weather history for previous 24 hours

 ConditionsComfort  
Time TempWeatherWind HumidityBarometerVisibility
1:50 AM
Sep 22
64 °FClear.7 mph88%29.86 "Hg10 mi
1:20 AM64 °FPassing clouds.3 mph83%29.86 "HgN/A
12:50 AM64 °FClear.3 mph83%29.86 "Hg10 mi
12:20 AM66 °FClear.2 mph83%29.86 "Hg10 mi
11:50 PM
Sep 21
66 °FClear.7 mph83%29.86 "Hg10 mi
11:20 PM66 °FClear.6 mph94%29.86 "Hg4 mi
10:50 PM66 °FClear.5 mph100%29.86 "Hg4 mi
10:20 PM68 °FClear.3 mph94%29.86 "Hg10 mi
9:50 PM70 °FPassing clouds.5 mph88%29.86 "Hg5 mi
9:20 PM70 °FPassing clouds.5 mph94%29.86 "Hg5 mi
8:50 PM70 °FPassing clouds.2 mph94%29.86 "Hg5 mi
8:20 PM72 °FClear.No wind88%29.86 "Hg10 mi
7:50 PM73 °FSunny.3 mph83%29.86 "Hg10 mi
7:20 PM73 °FSunny.3 mph83%29.86 "Hg10 mi
6:50 PM75 °FSunny.3 mph78%29.86 "Hg10 mi
6:20 PM77 °FSunny.6 mph74%29.86 "Hg10 mi
5:50 PM77 °FPassing clouds.5 mph74%29.89 "HgN/A
5:20 PM79 °FPassing clouds.5 mph70%29.89 "HgN/A
4:50 PM77 °FPassing clouds.7 mph69%29.89 "HgN/A
4:20 PM77 °FPassing clouds.6 mph69%29.92 "HgN/A
3:50 PM77 °FPassing clouds.6 mph69%29.92 "HgN/A
3:20 PM79 °FPassing clouds.5 mph65%29.92 "HgN/A
2:50 PM77 °FPassing clouds.5 mph69%29.95 "HgN/A
2:20 PM79 °FPassing clouds.2 mph65%29.95 "HgN/A
1:50 PM77 °FPassing clouds.3 mph69%29.95 "HgN/A
1:20 PM77 °FSunny.2 mph69%29.98 "Hg10 mi
12:50 PM77 °FSunny.2 mph69%29.98 "Hg10 mi
12:20 PM75 °FSunny.2 mph74%29.98 "Hg10 mi
11:50 AM75 °FSunny.3 mph69%29.98 "Hg10 mi
11:20 AM73 °FSunny.2 mph78%30.01 "Hg10 mi
10:50 AM73 °FSunny.2 mph74%30.01 "Hg10 mi
10:20 AM73 °FSunny.No wind78%30.01 "Hg10 mi
9:50 AM70 °FSunny.1 mph83%30.01 "Hg10 mi
9:20 AM68 °FPassing clouds.3 mph88%30.01 "HgN/A
8:50 AM68 °FPassing clouds.6 mph88%30.01 "HgN/A
8:20 AM64 °FSunny.8 mph94%29.98 "Hg10 mi
7:50 AM64 °FClear.7 mph94%29.98 "Hg10 mi
7:20 AM63 °FClear.8 mph100%29.98 "Hg5 mi
6:50 AM63 °FClear.6 mph94%29.98 "Hg5 mi
6:20 AM63 °FClear.7 mph100%29.98 "Hg5 mi
5:50 AM64 °FClear.7 mph94%29.98 "Hg5 mi
5:20 AM64 °FClear.7 mph94%29.98 "Hg5 mi
4:50 AM64 °FClear.8 mph94%29.98 "Hg5 mi
4:20 AM64 °FClear.7 mph94%30.01 "Hg5 mi
3:50 AM64 °FClear.7 mph94%30.01 "Hg5 mi
3:20 AM64 °FClear.8 mph94%30.01 "Hg5 mi
Weather by CustomWeather, © 2014

See weather overviewHow to use our weather pages